1997,6,1,0,0,-.78,01,9900.00,99,-.52,01,9900.00,99,9900.00,99
1997,6,1,0,5,-.80,01,9900.00,99,-.57,01,9900.00,99,9900.00,99
1997,6,1,0,10,-.97,01,9900.00,99,-.68,01,9900.00,99,9900.00,99
1997,6,1,0,15,-1.12,01,9900.00,99,-1.07,01,9900.00,99,9900.00,99
1997,6,1,0,20,-1.31,01,9900.00,99,-1.17,01,9900.00,99,9900.00,99
1997,6,1,0,25,-1.26,01,9900.00,99,-1.17,01,9900.00,99,9900.00,99
1997,6,1,0,30,-1.09,01,9900.00,99,-1.16,01,9900.00,99,9900.00,99
1997,6,1,0,35,-1.01,01,9900.00,99,-.90,01,9900.00,99,9900.00,99
1997,6,1,0,40,-.70,01,9900.00,99,-.50,01,9900.00,99,9900.00,99
1997,6,1,0,45,-.65,01,9900.00,99,-.47,01,9900.00,99,9900.00,99
1997,6,1,0,50,-.92,01,9900.00,99,-.55,01,9900.00,99,9900.00,99
1997,6,1,0,55,-1.03,01,9900.00,99,-.84,01,9900.00,99,9900.00,99
1997,6,1,1,0,-1.15,01,9900.00,99,-1.14,01,9900.00,99,9900.00,99
1997,6,1,1,5,-1.13,01,9900.00,99,-1.13,01,9900.00,99,9900.00,99
1997,6,1,1,10,-1.03,01,9900.00,99,-.95,01,9900.00,99,9900.00,99
1997,6,1,1,15,-1.13,01,9900.00,99,-1.13,01,9900.00,99,9900.00,99
1997,6,1,1,20,-1.15,01,9900.00,99,-1.17,01,9900.00,99,9900.00,99
1997,6,1,1,25,-1.28,01,9900.00,99,-1.17,01,9900.00,99,9900.00,99
1997,6,1,1,30,-1.61,01,9900.00,99,-1.19,01,9900.00,99,9900.00,99
1997,6,1,1,35,-1.31,01,9900.00,99,-1.18,01,9900.00,99,9900.00,99
1997,6,1,1,40,-1.17,01,9900.00,99,-1.18,01,9900.00,99,9900.00,99
1997,6,1,1,45,-1.29,01,9900.00,99,-1.19,01,9900.00,99,9900.00,99
1997,6,1,1,50,-1.60,01,9900.00,99,-1.23,01,9900.00,99,9900.00,99
1997,6,1,1,55,-1.73,01,9900.00,99,-1.40,01,9900.00,99,9900.00,99
1997,6,1,2,0,-1.66,01,9900.00,99,-1.35,01,9900.00,99,9900.00,99
1997,6,1,2,5,-1.69,01,9900.00,99,-1.43,01,9900.00,99,9900.00,99
1997,6,1,2,10,-1.69,01,9900.00,99,-1.39,01,9900.00,99,9900.00,99
1997,6,1,2,15,-1.67,01,9900.00,99,-1.38,01,9900.00,99,9900.00,99
1997,6,1,2,20,-1.58,01,9900.00,99,-1.41,01,9900.00,99,9900.00,99
1997,6,1,2,25,-1.64,01,9900.00,99,-1.47,01,9900.00,99,9900.00,99
1997,6,1,2,30,-1.70,01,9900.00,99,-1.52,01,9900.00,99,9900.00,99
1997,6,1,2,35,-1.74,01,9900.00,99,-1.64,01,9900.00,99,9900.00,99
1997,6,1,2,40,-1.86,01,9900.00,99,-1.85,01,9900.00,99,9900.00,99
1997,6,1,2,45,-2.01,01,9900.00,99,-1.93,01,9900.00,99,9900.00,99
1997,6,1,2,50,-2.28,01,9900.00,99,-2.00,01,9900.00,99,9900.00,99
1997,6,1,2,55,-2.37,01,9900.00,99,-1.99,01,9900.00,99,9900.00,99
1997,6,1,3,0,-2.44,01,9900.00,99,-2.08,01,9900.00,99,9900.00,99
1997,6,1,3,5,-2.49,01,9900.00,99,-2.27,01,9900.00,99,9900.00,99
1997,6,1,3,10,-2.50,01,9900.00,99,-2.51,01,9900.00,99,9900.00,99
1997,6,1,3,15,-2.53,01,9900.00,99,-2.48,01,9900.00,99,9900.00,99
1997,6,1,3,20,-2.14,01,9900.00,99,-1.99,01,9900.00,99,9900.00,99
1997,6,1,3,25,-1.81,01,9900.00,99,-1.74,01,9900.00,99,9900.00,99
1997,6,1,3,30,-1.73,01,9900.00,99,-1.49,01,9900.00,99,9900.00,99
1997,6,1,3,35,-1.50,01,9900.00,99,-1.26,01,9900.00,99,9900.00,99
1997,6,1,3,40,-1.42,01,9900.00,99,-1.21,01,9900.00,99,9900.00,99
1997,6,1,3,45,-1.42,01,9900.00,99,-1.22,01,9900.00,99,9900.00,99
1997,6,1,3,50,-1.15,01,9900.00,99,-1.18,01,9900.00,99,9900.00,99
1997,6,1,3,55,-1.17,01,9900.00,99,-1.18,01,9900.00,99,9900.00,99
1997,6,1,4,0,-1.15,01,9900.00,99,-1.19,01,9900.00,99,9900.00,99
1997,6,1,4,5,-1.16,01,9900.00,99,-1.18,01,9900.00,99,9900.00,99
1997,6,1,4,10,-1.24,01,9900.00,99,-1.18,01,9900.00,99,9900.00,99
1997,6,1,4,15,-1.14,01,9900.00,99,-1.18,01,9900.00,99,9900.00,99
1997,6,1,4,20,-1.10,01,9900.00,99,-1.18,01,9900.00,99,9900.00,99
1997,6,1,4,25,-.82,01,9900.00,99,-.73,01,9900.00,99,9900.00,99
1997,6,1,4,30,-.39,01,9900.00,99,-.39,01,9900.00,99,9900.00,99
1997,6,1,4,35,-.37,01,9900.00,99,-.39,01,9900.00,99,9900.00,99
1997,6,1,4,40,-.31,01,9900.00,99,-.33,01,9900.00,99,9900.00,99
1997,6,1,4,45,-.41,01,9900.00,99,-.39,01,9900.00,99,9900.00,99
1997,6,1,4,50,-.33,01,9900.00,99,-.37,01,9900.00,99,9900.00,99
1997,6,1,4,55,-.07,01,9900.00,99,-.14,01,9900.00,99,9900.00,99
1997,6,1,5,0,-.07,01,9900.00,99,-.20,01,9900.00,99,9900.00,99
1997,6,1,5,5,-.03,01,9900.00,99,-.12,01,9900.00,99,9900.00,99
1997,6,1,5,10,.08,01,9900.00,99,.07,01,9900.00,99,9900.00,99
1997,6,1,5,15,.02,01,9900.00,99,.14,01,9900.00,99,9900.00,99
1997,6,1,5,20,.77,01,9900.00,99,.69,01,9900.00,99,9900.00,99
1997,6,1,5,25,2.52,01,9900.00,99,2.12,01,9900.00,99,9900.00,99
1997,6,1,5,30,7.11,01,9900.00,99,6.35,01,9900.00,99,9900.00,99
1997,6,1,5,35,13.30,01,9900.00,99,11.54,01,9900.00,99,9900.00,99
1997,6,1,5,40,18.31,01,9900.00,99,16.16,01,9900.00,99,9900.00,99
1997,6,1,5,45,22.65,01,9900.00,99,19.32,01,9900.00,99,9900.00,99
1997,6,1,5,50,24.26,01,9900.00,99,23.47,01,9900.00,99,9900.00,99
1997,6,1,5,55,38.70,01,9900.00,99,30.65,01,9900.00,99,9900.00,99
1997,6,1,6,0,30.63,01,9900.00,99,25.96,01,9900.00,99,9900.00,99
1997,6,1,6,5,38.16,01,9900.00,99,32.39,01,9900.00,99,9900.00,99
1997,6,1,6,10,53.98,01,9900.00,99,45.27,01,9900.00,99,9900.00,99
1997,6,1,6,15,65.26,01,9900.00,99,54.83,01,9900.00,99,9900.00,99
1997,6,1,6,20,69.57,02,9900.00,99,59.93,02,9900.00,99,9900.00,99
1997,6,1,6,25,73.10,02,9900.00,99,61.86,02,9900.00,99,9900.00,99
1997,6,1,6,30,74.98,02,9900.00,99,63.74,02,9900.00,99,9900.00,99
1997,6,1,6,35,87.16,02,9900.00,99,73.03,02,9900.00,99,9900.00,99
1997,6,1,6,40,121.24,02,9900.00,99,106.25,02,9900.00,99,9900.00,99
1997,6,1,6,45,112.12,02,9900.00,99,94.82,02,9900.00,99,9900.00,99
1997,6,1,6,50,125.77,02,9900.00,99,106.45,02,9900.00,99,9900.00,99
1997,6,1,6,55,127.15,02,9900.00,99,107.44,02,9900.00,99,9900.00,99
1997,6,1,7,0,111.45,02,9900.00,99,93.60,02,9900.00,99,9900.00,99
1997,6,1,7,5,94.56,02,9900.00,99,80.46,02,9900.00,99,9900.00,99
1997,6,1,7,10,95.11,02,9900.00,99,80.98,02,9900.00,99,9900.00,99
1997,6,1,7,15,89.47,02,9900.00,99,76.26,02,9900.00,99,9900.00,99
1997,6,1,7,20,93.92,02,9900.00,99,79.75,02,9900.00,99,9900.00,99
1997,6,1,7,25,112.34,02,9900.00,99,95.01,02,9900.00,99,9900.00,99
1997,6,1,7,30,160.22,02,9900.00,99,135.37,02,9900.00,99,9900.00,99
1997,6,1,7,35,203.28,02,9900.00,99,171.40,02,9900.00,99,9900.00,99
1997,6,1,7,40,235.77,02,9900.00,99,207.79,02,9900.00,99,9900.00,99
1997,6,1,7,45,207.70,02,9900.00,99,174.58,02,9900.00,99,9900.00,99
1997,6,1,7,50,221.78,02,9900.00,99,189.03,02,9900.00,99,9900.00,99
1997,6,1,7,55,237.81,02,9900.00,99,201.25,02,9900.00,99,9900.00,99
1997,6,1,8,0,249.01,02,9900.00,99,247.30,02,9900.00,99,9900.00,99
1997,6,1,8,5,237.86,02,9900.00,99,235.37,02,9900.00,99,9900.00,99
1997,6,1,8,10,248.03,02,9900.00,99,236.55,02,9900.00,99,9900.00,99
1997,6,1,8,15,279.00,02,9900.00,99,275.59,02,9900.00,99,9900.00,99
1997,6,1,8,20,325.49,02,9900.00,99,295.43,02,9900.00,99,9900.00,99
1997,6,1,8,25,279.87,02,9900.00,99,252.39,02,9900.00,99,9900.00,99
1997,6,1,8,30,178.26,02,9900.00,99,152.12,02,9900.00,99,9900.00,99
1997,6,1,8,35,128.15,02,9900.00,99,109.88,02,9900.00,99,9900.00,99
1997,6,1,8,40,145.75,02,9900.00,99,122.08,02,9900.00,99,9900.00,99
1997,6,1,8,45,139.89,02,9900.00,99,118.74,02,9900.00,99,9900.00,99
1997,6,1,8,50,122.61,02,9900.00,99,103.90,02,9900.00,99,9900.00,99
1997,6,1,8,55,117.81,02,9900.00,99,100.09,02,9900.00,99,9900.00,99
1997,6,1,9,0,109.02,02,9900.00,99,92.53,02,9900.00,99,9900.00,99
1997,6,1,9,5,106.64,02,9900.00,99,89.50,02,9900.00,99,9900.00,99
1997,6,1,9,10,118.20,02,9900.00,99,99.88,02,9900.00,99,9900.00,99
1997,6,1,9,15,121.82,02,9900.00,99,103.41,02,9900.00,99,9900.00,99
1997,6,1,9,20,155.44,02,9900.00,99,131.37,02,9900.00,99,9900.00,99
1997,6,1,9,25,210.57,02,9900.00,99,176.91,02,9900.00,99,9900.00,99
1997,6,1,9,30,192.79,02,9900.00,99,162.86,02,9900.00,99,9900.00,99
1997,6,1,9,35,162.81,02,9900.00,99,137.37,02,9900.00,99,9900.00,99
1997,6,1,9,40,190.25,02,9900.00,99,161.92,02,9900.00,99,9900.00,99
1997,6,1,9,45,173.88,02,9900.00,99,148.47,02,9900.00,99,9900.00,99
1997,6,1,9,50,142.03,02,9900.00,99,120.89,02,9900.00,99,9900.00,99
1997,6,1,9,55,129.79,02,9900.00,99,110.97,02,9900.00,99,9900.00,99
1997,6,1,10,0,108.86,02,9900.00,99,92.86,02,9900.00,99,9900.00,99
1997,6,1,10,5,82.56,02,9900.00,99,70.33,02,9900.00,99,9900.00,99
1997,6,1,10,10,55.35,02,9900.00,99,47.21,02,9900.00,99,9900.00,99
1997,6,1,10,15,87.71,02,9900.00,99,73.82,02,9900.00,99,9900.00,99
1997,6,1,10,20,102.97,02,9900.00,99,86.63,02,9900.00,99,9900.00,99
1997,6,1,10,25,114.79,02,9900.00,99,96.90,02,9900.00,99,9900.00,99
1997,6,1,10,30,125.86,02,9900.00,99,106.24,02,9900.00,99,9900.00,99
1997,6,1,10,35,142.36,02,9900.00,99,120.16,02,9900.00,99,9900.00,99
1997,6,1,10,40,167.19,02,9900.00,99,140.80,02,9900.00,99,9900.00,99
1997,6,1,10,45,190.88,02,9900.00,99,160.87,02,9900.00,99,9900.00,99
1997,6,1,10,50,196.93,02,9900.00,99,166.71,02,9900.00,99,9900.00,99
1997,6,1,10,55,209.16,02,9900.00,99,176.81,02,9900.00,99,9900.00,99
1997,6,1,11,0,234.52,02,9900.00,99,197.82,02,9900.00,99,9900.00,99
1997,6,1,11,5,252.35,02,9900.00,99,213.71,02,9900.00,99,9900.00,99
1997,6,1,11,10,255.09,02,9900.00,99,215.47,02,9900.00,99,9900.00,99
1997,6,1,11,15,286.21,02,9900.00,99,242.01,02,9900.00,99,9900.00,99
1997,6,1,11,20,361.71,02,9900.00,99,303.98,02,9900.00,99,9900.00,99
1997,6,1,11,25,343.11,02,9900.00,99,289.22,02,9900.00,99,9900.00,99
1997,6,1,11,30,273.40,02,9900.00,99,233.75,02,9900.00,99,9900.00,99
1997,6,1,11,35,241.75,02,9900.00,99,205.64,02,9900.00,99,9900.00,99
1997,6,1,11,40,265.66,02,9900.00,99,222.89,02,9900.00,99,9900.00,99
1997,6,1,11,45,375.04,02,9900.00,99,367.39,02,9900.00,99,9900.00,99
1997,6,1,11,50,530.39,02,9900.00,99,508.93,02,9900.00,99,9900.00,99
1997,6,1,11,55,512.44,02,9900.00,99,504.10,02,9900.00,99,9900.00,99
1997,6,1,12,0,448.38,02,9900.00,99,445.97,02,9900.00,99,9900.00,99
1997,6,1,12,5,372.47,02,9900.00,99,312.17,02,9900.00,99,9900.00,99
1997,6,1,12,10,306.65,02,9900.00,99,260.50,02,9900.00,99,9900.00,99
1997,6,1,12,15,322.47,02,9900.00,99,275.26,02,9900.00,99,9900.00,99
1997,6,1,12,20,349.88,02,9900.00,99,296.69,02,9900.00,99,9900.00,99
1997,6,1,12,25,353.32,02,9900.00,99,300.39,02,9900.00,99,9900.00,99
1997,6,1,12,30,313.96,02,9900.00,99,268.30,02,9900.00,99,9900.00,99
1997,6,1,12,35,269.93,02,9900.00,99,231.32,02,9900.00,99,9900.00,99
1997,6,1,12,40,239.96,02,9900.00,99,205.23,02,9900.00,99,9900.00,99
1997,6,1,12,45,227.49,02,9900.00,99,194.65,02,9900.00,99,9900.00,99
1997,6,1,12,50,244.52,02,9900.00,99,208.29,02,9900.00,99,9900.00,99
1997,6,1,12,55,277.59,02,9900.00,99,235.54,02,9900.00,99,9900.00,99
1997,6,1,13,0,313.35,02,9900.00,99,265.25,02,9900.00,99,9900.00,99
1997,6,1,13,5,320.88,02,9900.00,99,274.52,02,9900.00,99,9900.00,99
1997,6,1,13,10,322.06,02,9900.00,99,274.56,02,9900.00,99,9900.00,99
1997,6,1,13,15,367.63,02,9900.00,99,309.06,02,9900.00,99,9900.00,99
1997,6,1,13,20,376.07,02,9900.00,99,317.86,02,9900.00,99,9900.00,99
1997,6,1,13,25,364.13,02,9900.00,99,305.75,02,9900.00,99,9900.00,99
1997,6,1,13,30,331.04,02,9900.00,99,280.80,02,9900.00,99,9900.00,99
1997,6,1,13,35,330.51,02,9900.00,99,280.49,02,9900.00,99,9900.00,99
1997,6,1,13,40,309.89,02,9900.00,99,264.31,02,9900.00,99,9900.00,99
1997,6,1,13,45,342.07,02,9900.00,99,290.40,02,9900.00,99,9900.00,99
1997,6,1,13,50,313.40,02,9900.00,99,266.63,02,9900.00,99,9900.00,99
1997,6,1,13,55,342.57,02,9900.00,99,288.97,02,9900.00,99,9900.00,99
1997,6,1,14,0,421.99,02,9900.00,99,387.50,02,9900.00,99,9900.00,99
1997,6,1,14,5,678.93,02,9900.00,99,540.19,02,9900.00,99,9900.00,99
1997,6,1,14,10,726.20,02,9900.00,99,522.22,02,9900.00,99,9900.00,99
1997,6,1,14,15,842.01,02,9900.00,99,401.87,02,9900.00,99,9900.00,99
1997,6,1,14,20,994.52,02,9900.00,99,360.92,02,9900.00,99,9900.00,99
1997,6,1,14,25,596.75,02,9900.00,99,350.97,02,9900.00,99,9900.00,99
1997,6,1,14,30,628.43,02,9900.00,99,442.77,02,9900.00,99,9900.00,99
1997,6,1,14,35,368.06,02,9900.00,99,353.25,02,9900.00,99,9900.00,99
1997,6,1,14,40,586.29,02,9900.00,99,496.05,02,9900.00,99,9900.00,99
1997,6,1,14,45,598.89,02,9900.00,99,453.49,02,9900.00,99,9900.00,99
1997,6,1,14,50,240.40,02,9900.00,99,237.20,02,9900.00,99,9900.00,99
1997,6,1,14,55,253.43,02,9900.00,99,212.64,02,9900.00,99,9900.00,99
1997,6,1,15,0,273.73,02,9900.00,99,233.09,02,9900.00,99,9900.00,99
1997,6,1,15,5,188.66,02,9900.00,99,160.00,02,9900.00,99,9900.00,99
1997,6,1,15,10,206.74,02,9900.00,99,176.56,02,9900.00,99,9900.00,99
1997,6,1,15,15,247.43,02,9900.00,99,212.31,02,9900.00,99,9900.00,99
1997,6,1,15,20,389.73,02,9900.00,99,346.96,02,9900.00,99,9900.00,99
1997,6,1,15,25,463.39,02,9900.00,99,384.77,02,9900.00,99,9900.00,99
1997,6,1,15,30,315.35,02,9900.00,99,265.87,02,9900.00,99,9900.00,99
1997,6,1,15,35,329.46,02,9900.00,99,276.60,02,9900.00,99,9900.00,99
1997,6,1,15,40,366.33,02,9900.00,99,348.02,02,9900.00,99,9900.00,99
1997,6,1,15,45,365.27,02,9900.00,99,356.97,02,9900.00,99,9900.00,99
1997,6,1,15,50,428.39,02,9900.00,99,380.13,02,9900.00,99,9900.00,99
1997,6,1,15,55,453.67,02,9900.00,99,385.85,02,9900.00,99,9900.00,99
1997,6,1,16,0,453.87,02,9900.00,99,375.24,02,9900.00,99,9900.00,99
1997,6,1,16,5,497.80,02,9900.00,99,376.75,02,9900.00,99,9900.00,99
1997,6,1,16,10,396.33,02,9900.00,99,341.79,02,9900.00,99,9900.00,99
1997,6,1,16,15,325.11,02,9900.00,99,315.87,02,9900.00,99,9900.00,99
1997,6,1,16,20,367.99,02,9900.00,99,329.14,02,9900.00,99,9900.00,99
1997,6,1,16,25,430.29,02,9900.00,99,341.69,02,9900.00,99,9900.00,99
1997,6,1,16,30,470.04,02,9900.00,99,324.46,02,9900.00,99,9900.00,99
1997,6,1,16,35,565.08,02,9900.00,99,314.97,02,9900.00,99,9900.00,99
1997,6,1,16,40,462.44,02,9900.00,99,278.44,02,9900.00,99,9900.00,99
1997,6,1,16,45,533.51,02,9900.00,99,285.21,02,9900.00,99,9900.00,99
1997,6,1,16,50,456.08,02,9900.00,99,282.36,02,9900.00,99,9900.00,99
1997,6,1,16,55,496.77,02,9900.00,99,278.09,02,9900.00,99,9900.00,99
1997,6,1,17,0,460.62,02,9900.00,99,265.03,02,9900.00,99,9900.00,99
1997,6,1,17,5,359.11,02,9900.00,99,246.13,02,9900.00,99,9900.00,99
1997,6,1,17,10,269.28,02,9900.00,99,233.96,02,9900.00,99,9900.00,99
1997,6,1,17,15,282.18,02,9900.00,99,240.30,02,9900.00,99,9900.00,99
1997,6,1,17,20,312.64,02,9900.00,99,236.79,02,9900.00,99,9900.00,99
1997,6,1,17,25,234.76,02,9900.00,99,202.56,02,9900.00,99,9900.00,99
1997,6,1,17,30,199.97,02,9900.00,99,181.90,02,9900.00,99,9900.00,99
1997,6,1,17,35,191.96,02,9900.00,99,172.41,02,9900.00,99,9900.00,99
1997,6,1,17,40,192.60,02,9900.00,99,162.03,02,9900.00,99,9900.00,99
1997,6,1,17,45,153.08,02,9900.00,99,149.70,02,9900.00,99,9900.00,99
1997,6,1,17,50,136.86,02,9900.00,99,131.65,02,9900.00,99,9900.00,99
1997,6,1,17,55,105.59,02,9900.00,99,90.81,02,9900.00,99,9900.00,99
1997,6,1,18,0,88.95,02,9900.00,99,77.26,02,9900.00,99,9900.00,99
1997,6,1,18,5,87.04,02,9900.00,99,72.81,02,9900.00,99,9900.00,99
1997,6,1,18,10,83.14,02,9900.00,99,69.81,02,9900.00,99,9900.00,99
1997,6,1,18,15,80.63,02,9900.00,99,67.96,02,9900.00,99,9900.00,99
1997,6,1,18,20,79.72,02,9900.00,99,68.02,02,9900.00,99,9900.00,99
1997,6,1,18,25,76.57,02,9900.00,99,66.00,02,9900.00,99,9900.00,99
1997,6,1,18,30,69.10,02,9900.00,99,59.37,02,9900.00,99,9900.00,99
1997,6,1,18,35,58.86,01,9900.00,99,50.99,01,9900.00,99,9900.00,99
1997,6,1,18,40,47.97,01,9900.00,99,41.82,01,9900.00,99,9900.00,99
1997,6,1,18,45,38.29,01,9900.00,99,33.23,01,9900.00,99,9900.00,99
1997,6,1,18,50,27.71,01,9900.00,99,24.15,01,9900.00,99,9900.00,99
1997,6,1,18,55,19.10,01,9900.00,99,16.66,01,9900.00,99,9900.00,99
1997,6,1,19,0,12.58,01,9900.00,99,11.07,01,9900.00,99,9900.00,99
1997,6,1,19,5,7.93,01,9900.00,99,7.08,01,9900.00,99,9900.00,99
1997,6,1,19,10,4.94,01,9900.00,99,4.51,01,9900.00,99,9900.00,99
1997,6,1,19,15,2.58,01,9900.00,99,2.35,01,9900.00,99,9900.00,99
1997,6,1,19,20,.33,01,9900.00,99,.47,01,9900.00,99,9900.00,99
1997,6,1,19,25,-.99,01,9900.00,99,-.62,01,9900.00,99,9900.00,99
1997,6,1,19,30,-1.61,01,9900.00,99,-1.15,01,9900.00,99,9900.00,99
1997,6,1,19,35,-2.07,01,9900.00,99,-1.32,01,9900.00,99,9900.00,99
1997,6,1,19,40,-2.42,01,9900.00,99,-1.74,01,9900.00,99,9900.00,99
1997,6,1,19,45,-2.49,01,9900.00,99,-1.93,01,9900.00,99,9900.00,99
1997,6,1,19,50,-2.49,01,9900.00,99,-1.92,01,9900.00,99,9900.00,99
1997,6,1,19,55,-2.50,01,9900.00,99,-1.95,01,9900.00,99,9900.00,99
1997,6,1,20,0,-2.51,01,9900.00,99,-1.97,01,9900.00,99,9900.00,99
1997,6,1,20,5,-2.47,01,9900.00,99,-1.89,01,9900.00,99,9900.00,99
1997,6,1,20,10,-2.41,01,9900.00,99,-1.75,01,9900.00,99,9900.00,99
1997,6,1,20,15,-2.47,01,9900.00,99,-1.89,01,9900.00,99,9900.00,99
1997,6,1,20,20,-2.50,01,9900.00,99,-1.93,01,9900.00,99,9900.00,99
1997,6,1,20,25,-2.47,01,9900.00,99,-1.95,01,9900.00,99,9900.00,99
1997,6,1,20,30,-2.49,01,9900.00,99,-1.86,01,9900.00,99,9900.00,99
1997,6,1,20,35,-2.51,01,9900.00,99,-1.95,01,9900.00,99,9900.00,99
1997,6,1,20,40,-2.48,01,9900.00,99,-1.92,01,9900.00,99,9900.00,99
1997,6,1,20,45,-2.45,01,9900.00,99,-1.92,01,9900.00,99,9900.00,99
1997,6,1,20,50,-2.41,01,9900.00,99,-1.80,01,9900.00,99,9900.00,99
1997,6,1,20,55,-1.91,01,9900.00,99,-1.36,01,9900.00,99,9900.00,99
1997,6,1,21,0,-2.11,01,9900.00,99,-1.49,01,9900.00,99,9900.00,99
1997,6,1,21,5,-1.98,01,9900.00,99,-1.42,01,9900.00,99,9900.00,99
1997,6,1,21,10,-1.97,01,9900.00,99,-1.29,01,9900.00,99,9900.00,99
1997,6,1,21,15,-1.66,01,9900.00,99,-1.19,01,9900.00,99,9900.00,99
1997,6,1,21,20,-1.66,01,9900.00,99,-1.21,01,9900.00,99,9900.00,99
1997,6,1,21,25,-1.30,01,9900.00,99,-1.13,01,9900.00,99,9900.00,99
1997,6,1,21,30,-1.89,01,9900.00,99,-1.21,01,9900.00,99,9900.00,99
1997,6,1,21,35,-1.93,01,9900.00,99,-1.30,01,9900.00,99,9900.00,99
1997,6,1,21,40,-2.46,01,9900.00,99,-1.89,01,9900.00,99,9900.00,99
1997,6,1,21,45,-2.15,01,9900.00,99,-1.55,01,9900.00,99,9900.00,99
1997,6,1,21,50,-1.90,01,9900.00,99,-1.34,01,9900.00,99,9900.00,99
1997,6,1,21,55,-1.63,01,9900.00,99,-1.21,01,9900.00,99,9900.00,99
1997,6,1,22,0,-2.08,01,9900.00,99,-1.52,01,9900.00,99,9900.00,99
1997,6,1,22,5,-2.08,01,9900.00,99,-1.46,01,9900.00,99,9900.00,99
1997,6,1,22,10,-2.42,01,9900.00,99,-1.75,01,9900.00,99,9900.00,99
1997,6,1,22,15,-2.49,01,9900.00,99,-1.94,01,9900.00,99,9900.00,99
1997,6,1,22,20,-2.43,01,9900.00,99,-1.87,01,9900.00,99,9900.00,99
1997,6,1,22,25,-3.00,01,9900.00,99,-2.42,01,9900.00,99,9900.00,99
1997,6,1,22,30,-2.46,01,9900.00,99,-1.80,01,9900.00,99,9900.00,99
1997,6,1,22,35,-1.79,01,9900.00,99,-1.27,01,9900.00,99,9900.00,99
1997,6,1,22,40,-1.03,01,9900.00,99,-.75,01,9900.00,99,9900.00,99
1997,6,1,22,45,-.66,01,9900.00,99,-.49,01,9900.00,99,9900.00,99
1997,6,1,22,50,-.28,01,9900.00,99,-.38,01,9900.00,99,9900.00,99
1997,6,1,22,55,-.11,01,9900.00,99,-.31,01,9900.00,99,9900.00,99
1997,6,1,23,0,-.33,01,9900.00,99,-.38,01,9900.00,99,9900.00,99
1997,6,1,23,5,-1.03,01,9900.00,99,-.71,01,9900.00,99,9900.00,99
1997,6,1,23,10,-.94,01,9900.00,99,-.68,01,9900.00,99,9900.00,99
1997,6,1,23,15,-.99,01,9900.00,99,-.74,01,9900.00,99,9900.00,99
1997,6,1,23,20,-1.58,01,9900.00,99,-1.17,01,9900.00,99,9900.00,99
1997,6,1,23,25,-2.36,01,9900.00,99,-1.67,01,9900.00,99,9900.00,99
1997,6,1,23,30,-2.75,01,9900.00,99,-2.03,01,9900.00,99,9900.00,99
1997,6,1,23,35,-2.50,01,9900.00,99,-1.93,01,9900.00,99,9900.00,99
1997,6,1,23,40,-2.51,01,9900.00,99,-1.97,01,9900.00,99,9900.00,99
1997,6,1,23,45,-2.74,01,9900.00,99,-2.00,01,9900.00,99,9900.00,99
1997,6,1,23,50,-2.96,01,9900.00,99,-2.16,01,9900.00,99,9900.00,99
1997,6,1,23,55,-2.52,01,9900.00,99,-1.95,01,9900.00,99,9900.00,99
1997,6,2,0,0,-2.56,01,9900.00,99,-1.91,01,9900.00,99,9900.00,99
1997,6,2,0,5,-2.45,01,9900.00,99,-1.88,01,9900.00,99,9900.00,99
1997,6,2,0,10,-2.34,01,9900.00,99,-1.72,01,9900.00,99,9900.00,99
1997,6,2,0,15,-2.38,01,9900.00,99,-1.73,01,9900.00,99,9900.00,99
1997,6,2,0,20,-2.04,01,9900.00,99,-1.51,01,9900.00,99,9900.00,99
1997,6,2,0,25,-.85,01,9900.00,99,-.65,01,9900.00,99,9900.00,99
1997,6,2,0,30,-1.61,01,9900.00,99,-1.19,01,9900.00,99,9900.00,99
1997,6,2,0,35,-1.73,01,9900.00,99,-1.19,01,9900.00,99,9900.00,99
1997,6,2,0,40,-1.76,01,9900.00,99,-1.19,01,9900.00,99,9900.00,99
1997,6,2,0,45,-1.20,01,9900.00,99,-.94,01,9900.00,99,9900.00,99
1997,6,2,0,50,-.94,01,9900.00,99,-.59,01,9900.00,99,9900.00,99
1997,6,2,0,55,-.94,01,9900.00,99,-.55,01,9900.00,99,9900.00,99
1997,6,2,1,0,-1.01,01,9900.00,99,-.67,01,9900.00,99,9900.00,99
1997,6,2,1,5,-1.44,01,9900.00,99,-1.17,01,9900.00,99,9900.00,99
1997,6,2,1,10,-1.29,01,9900.00,99,-1.13,01,9900.00,99,9900.00,99
1997,6,2,1,15,-1.04,01,9900.00,99,-.83,01,9900.00,99,9900.00,99
1997,6,2,1,20,-1.04,01,9900.00,99,-.69,01,9900.00,99,9900.00,99
1997,6,2,1,25,-1.07,01,9900.00,99,-.82,01,9900.00,99,9900.00,99
1997,6,2,1,30,-2.11,01,9900.00,99,-1.51,01,9900.00,99,9900.00,99
1997,6,2,1,35,-3.29,01,9900.00,99,-2.61,01,9900.00,99,9900.00,99
1997,6,2,1,40,-3.92,01,9900.00,99,-3.13,01,9900.00,99,9900.00,99
1997,6,2,1,45,-4.34,01,9900.00,99,-3.50,01,9900.00,99,9900.00,99
1997,6,2,1,50,-3.04,01,9900.00,99,-2.41,01,9900.00,99,9900.00,99
1997,6,2,1,55,-2.54,01,9900.00,99,-1.81,01,9900.00,99,9900.00,99
1997,6,2,2,0,-1.41,01,9900.00,99,-1.02,01,9900.00,99,9900.00,99
1997,6,2,2,5,-.52,01,9900.00,99,-.42,01,9900.00,99,9900.00,99
1997,6,2,2,10,-.33,01,9900.00,99,-.35,01,9900.00,99,9900.00,99
1997,6,2,2,15,-.71,01,9900.00,99,-.66,01,9900.00,99,9900.00,99
1997,6,2,2,20,-1.95,01,9900.00,99,-1.41,01,9900.00,99,9900.00,99
1997,6,2,2,25,-3.04,01,9900.00,99,-2.43,01,9900.00,99,9900.00,99
1997,6,2,2,30,-3.11,01,9900.00,99,-2.45,01,9900.00,99,9900.00,99
1997,6,2,2,35,-2.28,01,9900.00,99,-1.72,01,9900.00,99,9900.00,99
1997,6,2,2,40,-1.49,01,9900.00,99,-1.16,01,9900.00,99,9900.00,99
1997,6,2,2,45,-2.07,01,9900.00,99,-1.20,01,9900.00,99,9900.00,99
1997,6,2,2,50,-2.63,01,9900.00,99,-1.69,01,9900.00,99,9900.00,99
1997,6,2,2,55,-3.45,01,9900.00,99,-2.64,01,9900.00,99,9900.00,99
1997,6,2,3,0,-3.91,01,9900.00,99,-3.16,01,9900.00,99,9900.00,99
1997,6,2,3,5,-4.01,01,9900.00,99,-3.38,01,9900.00,99,9900.00,99
1997,6,2,3,10,-3.60,01,9900.00,99,-2.84,01,9900.00,99,9900.00,99
1997,6,2,3,15,-3.42,01,9900.00,99,-2.77,01,9900.00,99,9900.00,99
1997,6,2,3,20,-3.38,01,9900.00,99,-2.77,01,9900.00,99,9900.00,99
1997,6,2,3,25,-3.76,01,9900.00,99,-3.15,01,9900.00,99,9900.00,99
1997,6,2,3,30,-3.48,01,9900.00,99,-2.88,01,9900.00,99,9900.00,99
1997,6,2,3,35,-3.26,01,9900.00,99,-2.83,01,9900.00,99,9900.00,99
1997,6,2,3,40,-3.34,01,9900.00,99,-2.83,01,9900.00,99,9900.00,99
1997,6,2,3,45,-3.29,01,9900.00,99,-2.84,01,9900.00,99,9900.00,99
1997,6,2,3,50,-3.59,01,9900.00,99,-3.07,01,9900.00,99,9900.00,99
1997,6,2,3,55,-4.16,01,9900.00,99,-3.54,01,9900.00,99,9900.00,99
1997,6,2,4,0,-3.71,01,9900.00,99,-3.41,01,9900.00,99,9900.00,99
1997,6,2,4,5,-3.25,01,9900.00,99,-2.81,01,9900.00,99,9900.00,99
1997,6,2,4,10,-3.22,01,9900.00,99,-2.80,01,9900.00,99,9900.00,99
1997,6,2,4,15,-3.00,01,9900.00,99,-2.67,01,9900.00,99,9900.00,99
1997,6,2,4,20,-2.88,01,9900.00,99,-2.70,01,9900.00,99,9900.00,99
1997,6,2,4,25,-2.81,01,9900.00,99,-2.67,01,9900.00,99,9900.00,99
1997,6,2,4,30,-3.12,01,9900.00,99,-2.72,01,9900.00,99,9900.00,99
1997,6,2,4,35,-3.09,01,9900.00,99,-2.73,01,9900.00,99,9900.00,99
1997,6,2,4,40,-3.03,01,9900.00,99,-2.72,01,9900.00,99,9900.00,99
1997,6,2,4,45,-3.17,01,9900.00,99,-2.75,01,9900.00,99,9900.00,99
1997,6,2,4,50,-3.22,01,9900.00,99,-2.84,01,9900.00,99,9900.00,99
1997,6,2,4,55,-3.46,01,9900.00,99,-3.27,01,9900.00,99,9900.00,99
1997,6,2,5,0,-3.72,01,9900.00,99,-3.49,01,9900.00,99,9900.00,99
1997,6,2,5,5,-3.67,01,9900.00,99,-3.40,01,9900.00,99,9900.00,99
1997,6,2,5,10,-3.25,01,9900.00,99,-2.82,01,9900.00,99,9900.00,99
1997,6,2,5,15,-2.55,01,9900.00,99,-2.03,01,9900.00,99,9900.00,99
1997,6,2,5,20,2.79,01,9900.00,99,3.02,08,9900.00,99,9900.00,99
1997,6,2,5,25,6.74,01,9900.00,99,6.54,01,9900.00,99,9900.00,99
1997,6,2,5,30,9.73,01,9900.00,99,8.53,01,9900.00,99,9900.00,99
1997,6,2,5,35,13.44,01,9900.00,99,11.68,01,9900.00,99,9900.00,99
1997,6,2,5,40,25.28,01,9900.00,99,24.32,01,9900.00,99,9900.00,99
1997,6,2,5,45,47.54,01,9900.00,99,43.44,01,9900.00,99,9900.00,99
1997,6,2,5,50,64.66,01,9900.00,99,57.39,01,9900.00,99,9900.00,99
1997,6,2,5,55,78.88,01,9900.00,99,63.98,01,9900.00,99,9900.00,99
1997,6,2,6,0,82.20,01,9900.00,99,58.39,01,9900.00,99,9900.00,99
1997,6,2,6,5,88.78,01,9900.00,99,53.81,01,9900.00,99,9900.00,99
1997,6,2,6,10,96.78,01,9900.00,99,52.43,01,9900.00,99,9900.00,99
1997,6,2,6,15,109.42,01,9900.00,99,58.72,01,9900.00,99,9900.00,99
1997,6,2,6,20,133.87,02,9900.00,99,66.57,02,9900.00,99,9900.00,99